Egegik Airport
PAII : now visible

Airfield :











YOU CAN JOIN US ON...

 
LOGIN :

Register | Disclaimer

   EN    FR    IT 

 









Legend :    VFR   Marginal VFR   IFR   Intensive IFR   Very Intensive IFR
Visi :
Ceiling :
>= 8 km
>= 3000ft
5 to 8 km
1000 to 3000 ft
1500m to 5 km
500 to 1000 ft
800 to 1500m
200 to 500 ft
< 800m
< 200 ft
Symbols :   Thunderstorms  Fog  Heavy snow  Heavy precipitations  Wind > 20 kt






- Airport Elevation : 92 ft
- IATA code : EII


PAII - Egegik

CURRENT METAR :
  • 231956Z AUTO 00000KT 10SM CLR M19/M21 A3043 RMK AO2 SLP304 T11891211 FZRANO

EXPIRED METARs :
  • 231856Z AUTO 03004KT 10SM CLR M21/M23 A3041 RMK AO2 SLP297 T12061228 FZRANO
  • 231756Z AUTO 00000KT 10SM CLR M24/M27 A3041 RMK AO2 SLP296 60000 T12441267 11206 21250 51014 FZRANO

TAF N/A



MET'MAP, your aeronautical weather chart ! - Copyright ORBIFLY December 2007 - Disclaimer

ORBIFLY MET'MAP TEAM :

Programming & Development : Alexandra Zaïnal
Concept & original design : Baudouin d'Aumeries
Assistance for programming : Marc-Olivier Méhu
Technical & hardware support : Manuel Goepfert

Contact : metmap@orbifly.com




SOURCES & CREDITS :

   NOAA       Earth
Advisory